Du Bois, PA

8:32 AM EDT on September 22, 2017 (GMT -0400)
Du Bois-Jefferson County

Weather History for KDUJ - February, 2013

Change the Weather History Date:

Monday, February 11, 2013

  Actual Average Record
Temperature  
Mean Temperature 42 °F 26 °F  
Max Temperature 53 °F 33 °F 53 °F (2013)
Min Temperature 31 °F 18 °F -10 °F (1979)
Degree Days  
Heating Degree Days 23 39  
Month to date heating degree days 478 442  
Since 1 July heating degree days 4059 4386  
Cooling Degree Days 0 0  
Month to date cooling degree days 0 0  
Year to date cooling degree days 0 0  
Moisture  
Dew Point 31 °F    
Average Humidity 75    
Maximum Humidity 100    
Minimum Humidity 50    
Precipitation  
Precipitation 0.07 in 0.08 in 0.45 in (1981)
Month to date precipitation 0.25 0.88  
Sea Level Pressure  
Sea Level Pressure 29.81 in    
Wind  
Wind Speed 15 mph (South)    
Max Wind Speed 31 mph    
Max Gust Speed 41 mph    
Visibility 6 miles    
Events Rain    
T = Trace of Precipitation, MM = Missing Value Source: NWS Daily Summary

Daily Weather History Graph

Daily Weather History Graph

Search for Another Location

Airport or City:

Trip Planner

Search our weather history database for the weather conditions in past years. The results will help you decide how hot, cold, wet, or windy it might be!

Date:

Astronomy

Feb. 11, 2013 Rise Set
Actual Time 7:15 AM EST 5:45 PM EST
Civil Twilight 6:46 AM EST 6:13 PM EST
Nautical Twilight 6:14 AM EST 6:46 PM EST
Astronomical Twilight 5:42 AM EST 7:18 PM EST
Moon 7:37 AM EST (2/11) 7:41 PM EST (2/11)
Length of Visible Light 11h 27m
Length of Day
10h 30m
Waxing Crescent, 3% of the Moon is Illuminated
Feb 11
Waxing Crescent
Feb 17
First Quarter
Feb 25
Full
Mar 4
Last Quarter
Mar 11
New

Hourly Weather History & Observations

Time (EST) Temp. Windchill Dew Point Humidity Pressure Visibility Wind Dir Wind Speed Gust Speed Precip Events Conditions
12:56 AM 34.0 °F 24.6 °F 18.0 °F 52% 29.99 in 10.0 mi SE 13.8 mph 20.7 mph N/A   Overcast
1:56 AM 35.1 °F 27.4 °F 19.0 °F 52% 29.96 in 10.0 mi SE 10.4 mph 19.6 mph N/A   Overcast
2:25 AM 33.8 °F 24.8 °F 23.0 °F 65% 29.91 in 2.5 mi SE 12.7 mph 21.9 mph N/A   Haze
2:38 AM 32.0 °F 24.2 °F 26.6 °F 80% 29.91 in 4.0 mi SE 9.2 mph 17.3 mph N/A   Haze
2:56 AM 32.0 °F 23.0 °F 27.0 °F 82% 29.94 in 2.5 mi SE 11.5 mph - 0.01 in   Haze
3:15 AM 30.2 °F 20.8 °F 28.4 °F 93% 29.88 in 3.0 mi ESE 11.5 mph - N/A   Overcast
3:40 AM 30.2 °F 21.9 °F 30.2 °F 100% 29.86 in 2.5 mi SE 9.2 mph - 0.00 in Rain Light Freezing Rain
3:52 AM 32.0 °F 23.6 °F 30.2 °F 93% 29.85 in 1.8 mi SE 10.4 mph - 0.01 in Rain Light Freezing Rain
3:56 AM 32.0 °F 23.0 °F 30.0 °F 92% 29.90 in 1.8 mi SE 11.5 mph - 0.01 in Rain Light Freezing Rain
4:03 AM 32.0 °F 25.6 °F 30.2 °F 93% 29.85 in 2.5 mi Variable 6.9 mph - 0.00 in Rain Light Freezing Rain
4:17 AM 32.0 °F 24.2 °F 30.2 °F 93% 29.85 in 2.0 mi SE 9.2 mph 16.1 mph 0.00 in   Overcast
4:25 AM 32.0 °F 23.6 °F 30.2 °F 93% 29.84 in 1.5 mi ESE 10.4 mph 16.1 mph 0.00 in   Overcast
4:56 AM 33.1 °F 27.7 °F 32.0 °F 96% 29.88 in 1.5 mi Variable 5.8 mph - 0.01 in   Overcast
5:17 AM 33.8 °F 27.7 °F 32.0 °F 93% 29.83 in 2.0 mi Variable 6.9 mph - 0.02 in   Overcast
5:56 AM 34.0 °F 29.8 °F 33.1 °F 96% 29.86 in 2.5 mi Variable 4.6 mph - 0.04 in   Overcast
6:07 AM 33.8 °F 28.6 °F 33.8 °F 100% 29.82 in 1.5 mi Variable 5.8 mph - N/A   Overcast
6:18 AM 35.6 °F 30.7 °F 33.8 °F 93% 29.81 in 2.0 mi SSE 5.8 mph - N/A   Overcast
6:36 AM 35.6 °F 29.2 °F 33.8 °F 93% 29.80 in 3.0 mi SSE 8.1 mph - N/A   Overcast
7:09 AM 35.6 °F 31.7 °F 35.6 °F 100% 29.79 in 1.8 mi Variable 4.6 mph - N/A   Overcast
7:40 AM 35.6 °F 30.7 °F 35.6 °F 100% 29.79 in 3.0 mi SSE 5.8 mph - N/A   Overcast
7:56 AM 37.0 °F 33.3 °F 37.0 °F 100% 29.83 in 5.0 mi Variable 4.6 mph - N/A   Overcast
8:19 AM 37.4 °F 32.8 °F 37.4 °F 100% 29.78 in 5.0 mi SSE 5.8 mph - N/A   Overcast
8:56 AM 37.9 °F 33.5 °F 37.0 °F 97% 29.81 in 7.0 mi Variable 5.8 mph - N/A   Overcast
9:08 AM 39.2 °F 35.0 °F 37.4 °F 93% 29.76 in 9.0 mi South 5.8 mph - N/A   Overcast
9:20 AM 39.2 °F 35.9 °F 37.4 °F 93% 29.75 in 10.0 mi SSE 4.6 mph - N/A   Overcast
9:56 AM 41.0 °F 36.4 °F 39.0 °F 93% 29.78 in 10.0 mi South 6.9 mph - N/A   Overcast
10:56 AM 45.0 °F 41.8 °F 41.0 °F 86% 29.74 in 10.0 mi South 5.8 mph - N/A   Overcast
11:47 AM 48.2 °F - 39.2 °F 71% 29.67 in 10.0 mi SW 18.4 mph 28.8 mph N/A   Overcast
11:56 AM 48.9 °F - 39.0 °F 69% 29.69 in 10.0 mi SW 13.8 mph 20.7 mph N/A   Overcast
12:56 PM 50.0 °F - 36.0 °F 59% 29.66 in 10.0 mi SW 24.2 mph 33.4 mph N/A   Partly Cloudy
1:56 PM 52.0 °F - 35.1 °F 53% 29.63 in 10.0 mi WSW 23.0 mph 29.9 mph N/A   Scattered Clouds
2:56 PM 52.0 °F - 33.1 °F 49% 29.62 in 10.0 mi WSW 24.2 mph 41.4 mph N/A   Mostly Cloudy
3:56 PM 50.0 °F - 32.0 °F 50% 29.63 in 10.0 mi West 16.1 mph 27.6 mph N/A   Overcast
4:56 PM 44.1 °F 36.5 °F 33.1 °F 65% 29.69 in 10.0 mi WNW 17.3 mph 27.6 mph N/A   Overcast
5:56 PM 39.0 °F 30.3 °F 28.9 °F 67% 29.73 in 10.0 mi West 16.1 mph 24.2 mph N/A   Mostly Cloudy
6:56 PM 36.0 °F 23.0 °F 25.0 °F 64% 29.80 in 10.0 mi West 29.9 mph 41.4 mph N/A   Overcast
7:56 PM 34.0 °F 22.1 °F 21.9 °F 61% 29.83 in 10.0 mi West 21.9 mph 33.4 mph N/A   Overcast
8:56 PM 33.1 °F 23.0 °F 23.0 °F 66% 29.83 in 10.0 mi WSW 15.0 mph 20.7 mph N/A   Mostly Cloudy
9:56 PM 33.1 °F 20.3 °F 21.9 °F 64% 29.83 in 10.0 mi WSW 24.2 mph 34.5 mph N/A   Overcast
10:56 PM 32.0 °F 18.4 °F 21.0 °F 64% 29.83 in 10.0 mi West 26.5 mph 35.7 mph N/A   Overcast
11:20 PM 32.0 °F 19.5 °F 21.2 °F 64% 29.81 in 10.0 mi West 21.9 mph 32.2 mph N/A   Overcast
11:56 PM 30.9 °F 19.1 °F 21.9 °F 69% 29.85 in 10.0 mi West 18.4 mph 35.7 mph N/A   Overcast